Location: Baltzenheim
(48.0930°N, 7.5559°E)
Time: 01:23:07
(UTC+00:00)

Daily predictions for brighter satellites

Satellite Brightness Start Highest point End
(mag) Time Altitude Azimuth Time Altitude Azimuth Time Altitude Azimuth
STARLINK-1247 4.1 00:00:32 10° WNW 00:03:33 42° NNE 00:06:32 10° E
STARLINK-1227 4.1 00:01:00 10° WNW 00:03:59 41° NNE 00:06:57 10° E
STARLINK-1099 4.4 00:00:29 10° WNW 00:03:25 35° WSW 00:03:25 35° WSW
ATLAS CENTAUR R/B 3.5 00:02:39 10° NNW 00:04:35 23° NNE 00:07:40 10° E
STARLINK-1226 4.1 00:01:52 10° WNW 00:04:51 42° NNE 00:07:51 10° E
STARLINK-1215 4.1 00:02:48 10° WNW 00:05:48 42° NNE 00:08:48 10° E
STARLINK-1217 4.1 00:04:34 10° WNW 00:07:35 43° NNE 00:10:35 10° E
STARLINK-1229 4.1 00:05:29 10° WNW 00:08:30 43° NNE 00:11:31 10° E
STARLINK-1270 4.0 00:06:20 10° WNW 00:09:21 44° NNE 00:12:23 10° E
GEOS 3 Rocket 3.5 00:07:39 27° SE 00:10:35 84° SW 00:15:55 10° NW
Cosmos 1726 3.2 00:07:33 10° NNW 00:10:50 30° W 00:10:55 30° W
STARLINK-1189 4.0 00:08:11 10° WNW 00:11:13 44° NNE 00:14:14 10° E
STARLINK-1188 4.0 00:09:04 10° WNW 00:12:06 45° NNE 00:15:07 10° E
Cosmos 2058 Rocket 3.4 00:07:45 10° N 00:12:07 58° ENE 00:13:46 35° SE
STARLINK-1235 3.7 00:09:45 10° WNW 00:12:48 51° NNE 00:15:50 10° E
STARLINK-1187 3.8 00:10:11 10° WNW 00:13:12 48° NNE 00:16:14 10° E
Meteor 1-29 2.9 00:09:58 10° NNE 00:13:22 68° ESE 00:13:32 66° ESE
COSMOS 2455 3.0 00:11:39 37° S 00:14:00 63° ESE 00:19:58 10° NE
STARLINK-1191 3.9 00:11:33 10° WNW 00:14:34 46° NNE 00:17:34 10° E
Cosmos 2228 2.9 00:10:24 10° NNW 00:14:39 71° W 00:15:32 53° SSW
STARLINK-1221 3.9 00:12:25 10° WNW 00:15:26 46° NNE 00:18:26 10° E
SJ 16-02 4.1 00:12:35 10° N 00:15:30 17° NE 00:18:23 10° E
STARLINK-1222 3.9 00:13:18 10° WNW 00:16:20 47° NNE 00:19:21 10° E
STARLINK-1214 3.9 00:14:13 10° WNW 00:17:15 47° NNE 00:20:15 10° E
Cosmos 1953 3.8 00:15:49 10° NW 00:19:04 24° W 00:19:26 24° W
SL-14 R/B 3.9 00:18:39 39° SE 00:19:30 46° E 00:23:12 10° NNE
Cosmos 1340 Rocket 3.9 00:17:12 10° NNW 00:20:47 31° W 00:21:08 30° WSW
IRAS Rocket 4.2 00:17:53 30° SSE 00:20:49 84° ENE 00:26:25 10° NNW
Okean 1-7 Rocket 3.7 00:22:03 42° SSE 00:23:25 66° E 00:27:54 10° NNE
Cosmos 1174 3.4 00:23:33 59° ESE 00:23:33 59° ESE 00:27:05 10° NE
Cosmos 1300 3.2 00:20:08 10° N 00:23:53 53° ENE 00:25:04 37° SE
Cosmos 921 Rocket 4.1 00:23:34 28° SE 00:24:45 34° E 00:28:39 10° NE
BREEZE M DEB (TANK) 3.2 00:26:49 33° E 00:26:49 33° E 00:28:46 10° E
COSMOS 2487 2.9 00:24:10 10° NNW 00:27:18 45° W 00:27:18 45° W
Cosmos 2219 4.3 00:27:01 10° NNW 00:32:26 42° NE 00:37:46 10° SE
Cosmos 1626 2.1 00:34:31 54° SSE 00:35:14 74° E 00:38:58 10° NNE
STARLINK-60 3.4 00:36:27 49° ESE 00:36:27 49° ESE 00:39:10 10° ENE
Cosmos 1656 Rocket 4.2 00:33:52 26° WSW 00:36:54 53° WNW 00:42:23 10° NNE
Cosmos 1606 Rocket 4.2 00:33:55 10° NNW 00:37:56 39° W 00:38:48 35° WSW
FALCON 9 R/B 3.7 00:38:25 29° SSW 00:41:03 35° SSE 00:57:30 10° ESE
Nadezhda 1 Rocket 4.2 00:35:17 10° N 00:41:25 66° ENE 00:45:52 20° SSE
MOZ.5/SAFIR/RUBIN 5/SL-8 3.9 00:44:16 26° SSE 00:46:49 73° ENE 00:51:27 10° N
UNK 4.3 00:44:01 19° SE 00:47:07 56° ENE 00:51:38 10° N
Cosmos 2297 Rocket 3.2 00:42:41 10° NNW 00:48:08 45° NE 00:53:31 10° SE
STARLINK-1245 4.4 00:44:46 10° WNW 00:48:51 52° NNE 00:52:54 10° E
SL-4 R/B 2.4 00:49:12 36° SW 00:51:04 66° SSE 00:55:45 10° ENE
NOSS 5 (C) 4.5 00:49:32 10° NW 00:52:42 61° SW 00:53:30 47° S
Cosmos 1437 2.6 00:52:48 61° SE 00:53:05 66° E 00:56:04 10° NNE
STARLINK-1233 4.4 00:49:44 10° WNW 00:53:49 54° NNE 00:57:54 10° E
Cosmos 1674 4.1 00:53:21 22° W 00:54:16 25° WNW 00:57:26 10° NNW
SL-19 R/B 4.2 00:51:47 10° NNE 00:57:10 75° WNW 01:00:03 29° SSW
ATLAS CENTAUR R/B 1.5 00:56:56 35° SW 00:58:41 75° NW 01:02:50 10° NE
STARLINK-1204 4.3 00:54:44 10° WNW 00:58:50 57° NNE 01:02:55 10° E
Cosmos 1777 Rocket 4.2 00:54:36 10° NNW 00:59:41 52° WSW 01:01:54 31° SSW
Timation 2 Rocket 3.9 00:53:45 10° NNW 01:00:06 69° WSW 01:04:30 20° SSE
SL-16 R/B 2.5 00:56:01 17° SSE 01:00:54 84° ENE 01:07:06 10° NNW
NOSS 3-4 (A) 3.8 00:57:31 20° WSW 01:01:43 60° NW 01:08:07 10° NE
NOSS 3-4 (C) 3.8 00:57:37 20° WSW 01:01:49 60° NW 01:08:14 10° NE
BREEZE-M R/B 3.5 01:01:08 34° S 01:02:00 39° SSE 01:05:00 10° E
FALCON 9 DEB 4.1 01:02:08 31° SE 01:02:11 31° SE 01:05:17 10° ENE
STARLINK-1238 4.2 00:59:41 10° WNW 01:03:47 59° NNE 01:07:54 10° E
Cosmos 1602 Rocket 3.9 01:01:57 27° SSE 01:04:05 57° E 01:08:19 10° NNE
STARLINK-29 3.2 01:04:34 48° SSE 01:04:41 48° SSE 01:07:47 10° ENE
Cosmos 1455 3.6 01:02:49 10° N 01:06:16 33° ENE 01:09:23 12° SE
ATLAS 3B R/B 2.9 01:00:45 10° NW 01:07:19 52° WSW 01:12:43 17° S
BREEZE-M DEB (TANK) 4.3 01:09:30 11° ESE 01:09:30 11° ESE 01:09:46 10° ESE
STARLINK-1201 4.1 01:04:41 10° WNW 01:08:49 61° NNE 01:12:55 10° E
CENTAUR R/B 3.9 01:03:56 10° NW 01:10:56 32° WSW 01:14:47 23° SSW
GP-B 4.3 01:08:26 10° NNE 01:12:37 39° E 01:16:11 13° SSE
BREEZE-M DEB (TANK) 1.0 01:12:39 55° WSW 01:13:06 88° S 01:15:24 10° ENE
Meteor 2-1 Rocket 4.2 01:08:07 10° N 01:13:40 81° ENE 01:18:04 17° SSE
STARLINK-1206 4.0 01:09:40 10° WNW 01:13:48 64° NNE 01:17:56 10° ESE
Cosmos 1867 4.5 01:10:56 10° NW 01:15:31 28° WSW 01:16:44 26° SW
Cosmos-2242 4.4 01:11:55 10° N 01:15:52 35° ENE 01:19:46 10° SE
Cosmos 1745 Rocket 3.9 01:12:45 25° SSW 01:16:32 82° W 01:22:42 10° N
STARLINK-1205 4.0 01:14:39 10° WNW 01:18:47 67° NNE 01:22:55 10° ESE
RESURS DK-1 2.4 01:19:17 31° SW 01:21:08 70° WNW 01:25:17 10° NNE
STARLINK-1218 3.9 01:19:36 10° WNW 01:23:46 71° NNE 01:27:54 10° ESE
Cosmos 2227 Rocket 2.5 01:18:09 10° NNW 01:23:51 69° ENE 01:29:29 10° SE
Cosmos 1356 Rocket 3.6 01:19:53 10° NNW 01:23:57 56° W 01:25:49 29° SSW
Meteor 1-24 Rocket 4.3 01:22:03 23° SW 01:24:53 42° WNW 01:30:01 10° N
Cosmos 2369 Rocket 4.4 01:23:04 10° W 01:26:45 17° NW 01:30:27 10° N
CZ-2D R/B 2.1 01:21:38 10° NNE 01:26:56 90° E 01:30:15 23° SSW
Cosmos 1697 Rocket 4.2 01:23:12 11° SSE 01:27:42 28° ESE 01:32:27 10° NE
STARLINK-1254 3.8 01:24:36 10° WNW 01:28:45 74° NNE 01:32:54 10° ESE
ADEOS II 3.1 01:24:36 10° NNE 01:29:34 40° E 01:34:07 12° SSE
ATLAS 2AS CENTAUR R/B 3.7 01:23:17 11° WSW 01:30:51 50° NW 01:38:28 10° NE
CZ-4C R/B 4.0 01:30:46 28° SSW 01:32:30 43° W 01:36:39 10° NNW
STARLINK-1231 3.7 01:29:36 10° WNW 01:33:46 78° NNE 01:37:55 10° ESE
STARLINK-1228 3.4 01:32:15 10° WNW 01:35:24 39° SW 01:38:33 10° SSE
STARLINK-1234 3.3 01:33:41 10° WNW 01:36:38 38° SW 01:37:03 35° SSW
Resurs 1-4 Rocket 2.1 01:31:24 10° NNE 01:36:41 74° WNW 01:40:11 22° SSW
STARLINK-1212 3.0 01:35:00 10° WNW 01:38:01 48° SSW 01:41:01 10° SE
STARLINK-1105 3.0 01:35:28 10° WNW 01:38:29 48° SSW 01:41:28 10° SE
STARLINK-1232 3.7 01:34:35 10° WNW 01:38:45 83° NNE 01:42:54 10° ESE
STARLINK-1209 3.5 01:35:58 10° WNW 01:38:42 34° SW 01:38:42 34° SW
STARLINK-1247 3.0 01:36:22 10° WNW 01:39:24 47° SW 01:42:25 10° SE
STARLINK-1227 3.0 01:36:51 10° WNW 01:39:51 47° SW 01:42:50 10° SE
USA 81 4.0 01:36:19 20° S 01:39:59 82° W 01:45:18 10° N
STARLINK-1226 3.0 01:37:42 10° WNW 01:40:43 46° SW 01:43:42 10° SE
STARLINK-52 2.8 01:39:41 31° WSW 01:41:05 83° SSE 01:44:18 10° ENE
ARIANE 5 R/B 3.9 01:37:05 10° NNE 01:41:37 32° E 01:46:04 10° SSE
STARLINK-1215 3.1 01:38:38 10° WNW 01:41:40 45° SW 01:44:40 10° SE
Cosmos 1758 Rocket 3.7 01:39:23 19° S 01:42:26 69° E 01:46:48 10° NNE
STARLINK-1217 3.1 01:40:25 10° WNW 01:43:25 44° SW 01:46:24 10° SE
STARLINK-1208 3.6 01:39:32 10° WNW 01:43:43 87° NNE 01:47:52 10° ESE
NPP 3.7 01:38:43 10° NNE 01:44:07 76° WNW 01:47:57 20° SSW
STARLINK-1229 3.1 01:41:20 10° WNW 01:44:20 43° SW 01:47:19 10° SE
STARLINK-1270 3.1 01:42:13 10° WNW 01:45:12 42° SW 01:48:10 10° SE
H-2A R/B 4.1 01:41:30 10° SE 01:45:13 29° ENE 01:49:02 10° N
STARLINK-1189 3.2 01:44:03 10° WNW 01:47:02 41° SW 01:49:59 10° SE
STARLINK-1188 3.2 01:44:57 10° WNW 01:47:55 40° SW 01:50:52 10° SE
STARLINK-1235 3.5 01:45:43 10° WNW 01:48:31 32° SW 01:51:20 10° SSE
STARLINK-1271 3.5 01:44:32 10° WNW 01:48:43 88° SSW 01:52:52 10° ESE
STARLINK-1187 3.4 01:46:06 10° WNW 01:48:58 35° SW 01:51:50 10° SSE
Cosmos 1898 Rocket 3.5 01:43:41 10° NNW 01:49:04 89° ENE 01:54:24 10° SSE
STARLINK-1191 3.3 01:47:27 10° WNW 01:50:21 38° SW 01:53:16 10° SE
Starlink 7 placeholder 3.7 01:49:43 17° WNW 01:50:41 26° NNW 01:52:27 10° NE
Lacrosse 4 Rocket 3.1 01:46:39 10° NNW 01:50:45 38° NE 01:54:45 10° ESE
Meteor 1-21 Rocket 4.2 01:46:49 19° SSW 01:50:58 81° WNW 01:56:42 10° N
STARLINK-1221 3.3 01:48:18 10° WNW 01:51:13 38° SW 01:54:08 10° SSE
STARLINK-1222 3.3 01:49:13 10° WNW 01:52:07 37° SW 01:55:01 10° SSE
Cosmos 1656 3.8 01:48:20 18° SSW 01:52:34 75° ESE 01:58:12 10° NNE
STARLINK-1214 3.3 01:50:08 10° WNW 01:53:01 36° SW 01:55:54 10° SSE
STARLINK-1154 3.5 01:49:32 10° WNW 01:53:42 84° SSW 01:57:50 10° ESE
Cosmos 2285 Rocket 4.3 01:48:07 10° NNW 01:54:32 72° ENE 02:00:51 10° SSE
CZ-4C R/B 3.1 01:50:43 14° S 01:54:32 37° ESE 01:59:50 10° NE
SJ 16-02 1.3 01:50:10 10° NNW 01:54:35 69° WSW 01:58:59 10° S
Cosmos 2084 3.6 01:52:18 20° SW 01:55:18 75° NW 01:59:48 10° NE
Cosmos 468 Rocket 4.1 01:52:22 17° SSW 01:56:16 75° ESE 02:01:24 10° NNE
STARLINK-1197 3.5 01:54:31 10° WNW 01:58:40 79° SSW 02:02:48 10° ESE
Cosmos 1953 Rocket 4.1 01:54:38 11° S 01:58:46 57° E 02:03:09 10° NNE
Cosmos 1937 Rocket 3.6 01:54:04 10° NNW 01:59:20 80° ENE 02:04:36 10° SSE
COSMOS 2455 4.1 01:54:58 10° WSW 02:00:21 33° NW 02:05:46 10° NNE
Cosmos 2369 4.4 01:55:55 12° S 02:00:55 47° ESE 02:06:19 10° NE
Meteor 2-10 Rocket 3.7 01:56:12 10° NNW 02:01:27 57° W 02:06:00 13° S
Cosmos 921 Rocket 4.4 02:00:21 15° WSW 02:03:06 27° WNW 02:06:47 10° N
STARLINK-1198 3.5 01:59:28 10° WNW 02:03:36 74° SSW 02:07:44 10° SE
Cosmos 1709 Rocket 4.1 02:01:48 16° SSW 02:06:43 62° WNW 02:12:49 10° N
STARLINK-1199 3.5 02:04:29 10° WNW 02:08:37 69° SSW 02:12:44 10° SE
STARLINK-1269 4.4 02:06:42 10° WNW 02:10:47 54° NNE 02:14:51 10° E
STARLINK-60 4.1 02:09:12 10° W 02:12:15 40° NNW 02:15:19 10° ENE
STARLINK-1210 3.5 02:09:27 10° WNW 02:13:34 65° SSW 02:17:40 10° SE
STARLINK-1200 4.4 02:11:42 10° WNW 02:15:48 56° NNE 02:19:53 10° E
Cosmos 2219 3.8 02:11:23 10° NW 02:16:31 36° WSW 02:21:36 10° S
STARLINK-1320 3.0 02:14:52 19° SW 02:16:54 60° SSE 02:19:59 10° ENE
STARLINK-1322 3.0 02:15:11 19° SW 02:17:13 61° SSE 02:20:19 10° ENE
STARLINK-1324 3.0 02:15:32 19° SW 02:17:35 61° SSE 02:20:41 10° ENE
STARLINK-1294 3.0 02:15:47 19° SW 02:17:52 62° SSE 02:20:58 10° ENE
STARLINK-1261 3.0 02:16:09 19° SW 02:18:14 62° SSE 02:21:19 10° ENE
STARLINK-1219 3.6 02:14:27 10° WNW 02:18:32 60° SSW 02:22:37 10° SE
STARLINK-1325 3.0 02:16:30 18° SW 02:18:36 62° SSE 02:21:42 10° ENE
STARLINK-1333 3.0 02:16:48 18° SW 02:18:54 63° SSE 02:22:00 10° ENE
STARLINK-1334 3.0 02:17:07 18° SW 02:19:14 63° SSE 02:22:20 10° ENE
STARLINK-1326 3.0 02:17:28 18° SW 02:19:35 64° SSE 02:22:41 10° ENE
Cosmos 1980 Rocket 3.3 02:14:43 10° S 02:19:51 39° ESE 02:25:03 10° NE
STARLINK-1323 3.0 02:17:47 18° SW 02:19:56 64° SSE 02:23:01 10° ENE
Cosmos 858 Rocket 4.5 02:14:44 10° NNW 02:19:59 70° WSW 02:25:14 10° SSE
STARLINK-1338 3.3 02:17:39 17° SW 02:20:09 60° SSE 02:23:36 10° ENE
STARLINK-1349 2.9 02:18:06 18° SW 02:20:15 64° SSE 02:23:21 10° ENE
STARLINK-1336 2.9 02:18:28 18° SW 02:20:37 65° SSE 02:23:44 10° ENE
STARLINK-1192 4.3 02:16:41 10° WNW 02:20:48 58° NNE 02:24:53 10° E
STARLINK-1331 2.9 02:18:45 18° SW 02:20:56 65° SSE 02:24:01 10° ENE
STARLINK-1344 2.9 02:19:05 18° SW 02:21:16 66° SSE 02:24:22 10° ENE
STARLINK-1343 2.9 02:19:25 17° SW 02:21:37 66° SSE 02:24:43 10° ENE
STARLINK-1346 2.9 02:19:43 17° SW 02:21:58 67° SSE 02:25:06 10° ENE
CRYOSAT 2 4.4 02:17:19 10° N 02:22:14 73° W 02:27:06 10° SSW
STARLINK-1328 2.9 02:20:05 17° SW 02:22:18 67° SSE 02:25:25 10° ENE
STARLINK-1354 2.9 02:20:22 17° SW 02:22:37 67° SSE 02:25:44 10° ENE
Cosmos 1328 3.9 02:19:19 14° SSW 02:22:38 61° WNW 02:26:36 10° N
STARLINK-1347 2.9 02:20:44 17° SW 02:22:59 68° SSE 02:26:05 10° ENE
STARLINK-1357 2.9 02:21:02 17° SW 02:23:17 68° SSE 02:26:23 10° ENE
STARLINK-1211 3.7 02:19:25 10° WNW 02:23:29 56° SW 02:27:32 10° SE
STARLINK-1335 2.9 02:21:22 17° SW 02:23:38 68° SSE 02:26:45 10° ENE
STARLINK-1327 2.9 02:21:40 17° SW 02:23:58 69° SSE 02:27:04 10° ENE
STARLINK-1371 3.3 02:21:31 16° SW 02:24:11 65° SSE 02:27:39 10° ENE
STARLINK-1340 2.9 02:22:01 17° SW 02:24:19 69° SSE 02:27:26 10° ENE
STARLINK-1356 2.9 02:22:21 16° SW 02:24:39 70° SSE 02:27:46 10° ENE
ERS-2 2.1 02:21:05 10° SSE 02:24:45 89° E 02:28:27 10° NNW
STARLINK-1345 2.9 02:22:41 16° SW 02:25:00 70° SSE 02:28:07 10° ENE
STARLINK-1355 2.9 02:22:59 16° SW 02:25:20 71° SSE 02:28:27 10° ENE
STARLINK-1321 2.9 02:23:18 16° SW 02:25:39 71° SSE 02:28:46 10° ENE
STARLINK-1244 4.2 02:21:39 10° WNW 02:25:46 60° NNE 02:29:52 10° E
STARLINK-1358 2.9 02:23:39 16° SW 02:26:01 71° SSE 02:29:08 10° ENE
STARLINK-1341 3.2 02:23:29 15° SW 02:26:14 67° SSE 02:29:42 10° ENE
STARLINK-1332 2.9 02:23:57 16° SW 02:26:19 72° SSE 02:29:27 10° ENE
STARLINK-1348 2.9 02:24:18 16° SW 02:26:41 72° SSE 02:29:48 10° ENE
STARLINK-1330 2.9 02:24:36 16° SW 02:27:00 73° SSE 02:30:08 10° ENE
STARLINK-1363 2.9 02:24:56 16° SW 02:27:21 73° SSE 02:30:28 10° ENE
STARLINK-1337 2.8 02:25:15 15° SW 02:27:41 73° SSE 02:30:48 10° ENE
IRS-1C 4.2 02:22:30 10° NNE 02:27:53 81° WNW 02:33:12 10° SSW
STARLINK-1342 2.8 02:25:35 15° SW 02:28:02 74° SSE 02:31:08 10° ENE
STARLINK-1374 3.2 02:25:26 15° SW 02:28:16 69° SSE 02:31:46 10° ENE
STARLINK-1364 2.8 02:25:55 15° SW 02:28:23 74° SSE 02:31:30 10° ENE
STARLINK-1245 3.7 02:24:26 10° WNW 02:28:28 52° SW 02:32:29 10° SE
STARLINK-1376 2.8 02:26:15 15° SW 02:28:43 75° SSE 02:31:50 10° ENE
STARLINK-1360 2.8 02:26:30 15° SW 02:29:00 75° SSE 02:32:07 10° ENE
STARLINK-1361 2.8 02:26:56 15° SW 02:29:25 76° SSE 02:32:33 10° ENE
STARLINK-1367 2.9 02:27:10 15° SW 02:29:41 76° SSE 02:32:51 10° ENE
STARLINK-1366 2.8 02:27:33 15° SW 02:30:04 77° SSE 02:33:12 10° ENE
STARLINK-1339 3.2 02:27:27 14° SW 02:30:20 71° SSE 02:33:51 10° ENE
CZ-4B R/B 4.4 02:26:03 10° N 02:30:41 36° WNW 02:35:12 11° SW
STARLINK-1138 4.1 02:26:38 10° WNW 02:30:46 63° NNE 02:34:53 10° ESE
SL-4 R/B 2.9 02:26:10 10° W 02:30:56 60° N 02:35:30 10° ENE
Cosmos 2297 Rocket 2.9 02:27:00 10° NW 02:32:02 34° WSW 02:37:03 10° SSW
STARLINK-1377 3.2 02:29:28 14° SW 02:32:26 74° SSE 02:35:58 10° ENE
STARLINK-1233 3.8 02:29:25 10° WNW 02:33:24 48° SW 02:37:24 10° SE
STARLINK-1203 4.1 02:29:27 10° WNW 02:33:38 66° NNE 02:37:50 10° ESE
STARLINK-1353 3.1 02:31:17 13° SW 02:34:18 76° SSE 02:37:47 10° ENE
STARLINK-1143 4.1 02:31:37 10° WNW 02:35:46 66° NNE 02:39:53 10° ESE
Cosmos 2082 3.7 02:30:22 10° NNW 02:35:56 60° WSW 02:41:27 10° S
STARLINK-1375 3.1 02:33:04 13° WSW 02:36:10 78° SSE 02:39:39 10° ENE
Cosmos 540 Rocket 3.6 02:32:50 10° SSW 02:37:58 74° ESE 02:43:06 10° NNE
ATLAS CENTAUR R/B 3.7 02:35:28 10° WNW 02:38:13 17° NNW 02:40:53 10° N
STARLINK-1204 3.9 02:34:26 10° WNW 02:38:23 45° SW 02:42:20 10° SE
STARLINK-1350 3.1 02:35:22 12° WSW 02:38:33 81° SSE 02:42:03 10° ENE
FALCON 9 DEB 3.6 02:35:40 10° WSW 02:39:05 59° NNW 02:42:32 10° ENE
STARLINK-1241 4.0 02:36:36 10° WNW 02:40:45 70° NNE 02:44:52 10° ESE
STARLINK-29 4.0 02:37:48 10° W 02:40:52 42° NNW 02:43:57 10° ENE
OE (NEXTSAT) 4.4 02:37:30 10° W 02:40:57 62° S 02:44:24 10° E
STARLINK-1352 3.2 02:37:40 11° WSW 02:40:59 84° SSE 02:44:31 10° ENE
Landsat 5 3.9 02:37:10 10° SSE 02:41:39 76° ENE 02:46:11 10° N
Cosmos 1455 3.7 02:38:57 10° NW 02:41:39 19° W 02:44:16 10° SW
Cosmos 1825 Rocket 4.3 02:38:21 11° SW 02:42:08 36° WNW 02:46:09 10° N
CZ-2D R/B 3.6 02:38:09 10° NNE 02:42:15 77° ESE 02:46:27 10° S
Cosmos 2278 4.0 02:36:48 10° SSW 02:42:24 69° ESE 02:48:02 10° NNE
STARLINK-1368 3.2 02:39:45 11° WSW 02:43:09 87° SSE 02:46:42 10° ENE
STARLINK-1238 4.0 02:39:24 10° WNW 02:43:19 41° SW 02:47:13 10° SSE
USA 234 4.2 02:37:47 10° ENE 02:43:49 38° SE 02:49:49 10° SSW
Meteor 1-11 4.3 02:38:57 10° SSW 02:44:35 75° WNW 02:50:13 10° N
Meteor 1-28 Rocket 3.3 02:40:54 10° S 02:44:37 58° W 02:48:22 10° NNW
STARLINK-1369 3.2 02:41:37 10° WSW 02:45:04 89° SE 02:48:35 10° ENE
SL-16 R/B 4.0 02:41:10 10° SW 02:45:16 18° W 02:49:23 10° NW
STARLINK-1239 3.9 02:41:34 10° WNW 02:45:44 73° NNE 02:49:52 10° ESE
ATLAS CENTAUR R/B 3.3 02:43:43 10° W 02:46:54 28° SW 02:53:20 10° SSE
STARLINK-1372 3.2 02:44:01 10° WSW 02:47:33 88° NNW 02:51:06 10° ENE
Cosmos 2263 Rocket 3.4 02:42:29 10° NNW 02:47:57 48° NE 02:53:19 10° SE
Cosmos 2074 Rocket 4.1 02:41:42 10° SSW 02:48:00 75° W 02:54:20 10° N
STARLINK-1201 4.1 02:44:26 10° WNW 02:48:17 38° SW 02:52:08 10° SSE
Cosmos 372 Rocket 4.0 02:44:31 10° NNW 02:49:40 85° WSW 02:54:48 10° SSE
GP-B 4.5 02:46:11 10° NNW 02:49:42 23° WNW 02:53:14 10° SW
STARLINK-1378 3.2 02:46:14 10° WSW 02:49:46 86° NNW 02:53:19 10° ENE
Cosmos 841 Rocket 3.5 02:45:01 10° SSW 02:50:16 83° WNW 02:55:32 10° NNE
STARLINK-1329 3.2 02:46:45 10° WSW 02:50:18 86° NNW 02:53:51 10° ENE
IRS-1D 4.5 02:45:35 10° N 02:50:27 36° WNW 02:55:15 10° SW
STARLINK-1240 3.8 02:46:34 10° WNW 02:50:43 77° NNE 02:54:52 10° ESE
STARLINK-1365 3.2 02:47:30 10° WSW 02:51:02 82° NNW 02:54:34 10° ENE
STARLINK-1379 3.2 02:48:27 10° WSW 02:51:59 84° NNW 02:55:32 10° ENE
STARLINK-1362 3.2 02:49:02 10° WSW 02:52:35 83° NNW 02:56:09 10° ENE
STARLINK-1206 4.2 02:49:26 10° WNW 02:53:14 35° SW 02:57:02 10° SSE
Cosmos-2242 4.3 02:49:50 10° NW 02:53:14 24° W 02:56:38 10° SW
Cosmos 1892 4.3 02:50:30 10° SSE 02:54:00 35° E 02:57:30 10° NNE
Cosmos 1869 3.6 02:50:10 10° N 02:54:05 70° E 02:57:55 10° SSE
Cosmos 1400 Rocket 3.2 02:50:40 10° NNW 02:54:38 46° W 02:58:35 10° S
COBE Rocket 4.2 02:49:55 10° S 02:54:42 53° W 02:59:40 10° NNW
STARLINK-1373 3.3 02:51:19 10° WSW 02:54:53 81° NNW 02:58:27 10° ENE
Cosmos 2221 2.6 02:51:07 10° N 02:55:28 84° E 02:59:49 10° S
STARLINK-1216 3.8 02:51:32 10° WNW 02:55:42 81° NNE 02:59:51 10° ESE
NOSS 7 (E) 4.4 02:53:19 10° SW 02:56:51 68° NW 02:59:55 10° NE
STARLINK-1390 3.3 02:53:24 10° WSW 02:56:57 79° NNW 03:00:29 10° ENE
STARLINK-1205 4.3 02:54:27 10° WNW 02:58:11 33° SW 03:01:54 10° SSE
Cosmos 2184 Rocket 4.1 02:53:25 10° SSW 02:59:33 64° WNW 03:05:42 10° N
SL-08 R/B 4.1 02:56:05 10° SSW 03:00:17 32° W 03:04:27 10° NNW
CZ-4C R/B 3.1 02:57:02 10° S 03:00:34 59° WSW 03:04:10 10° NNW
STARLINK-1237 3.7 02:56:32 10° WNW 03:00:42 85° NNE 03:04:50 10° ESE
